Location: Newark
(34.0131°N, 4.3314°W)
Time: 06:33:32
(UTC+00:00)

Explorer 11/Cluster Stage 4 - Pass Details

Date: 24 October 2019
Orbit: 467 x 1259 km, 28.8° (Epoch: 12 November)

Event Time Altitude Azimuth Distance (km) Brightness Sun altitude
Rises 07:53:43 0° 242° (WSW) 2,724 9.0 15.6°
Reaches altitude 10° 07:56:19 10° 231° (SW) 1,739 8.2 16.0°
Maximum altitude 07:59:42 28° 170° (S) 924 7.7 16.7°
Drops below altitude 10° 08:02:51 10° 109° (ESE) 1,613 10.5 17.2°
Sets 08:05:10 0° 97° (E) 2,484 10.5 17.7°
